Regional Weather Roundup
Issued by NWS Kansas City/Pleasant Hill, MO

Home | Current Version | Previous Version | Text Only | Print | Product List | Glossary On
Versions: 1 2 3 4 5 6 7 8 9 10 11 12 13 14 15 16 17 18 19 20 21 22 23 24 25 26 27
000
ASUS43 KEAX 241610
RWREAX

WEATHER ROUNDUP FOR EASTERN KANSAS AND NORTHWEST MISSOURI
NATIONAL WEATHER SERVICE KANSAS CITY/PLEASANT HILL MO
1100 AM CDT SUN SEP 24 2017

KSZ040-057-103>105-MOZ028-029-037-043-241700-
...KANSAS CITY METROPOLITAN AREA...

CITY           SKY/WX    TMP DP  RH WIND       PRES   REMARKS
K.C. INTL      MOSUNNY   82  69  64 S10       29.98S
K.C. DOWNTOWN  SUNNY     84  69  60 S8        29.97S
LEES SUMMIT    SUNNY     82  68  62 S10       30.00S
OLATHE - IXD   SUNNY     82  68  62 S10       29.99S
OLATHE - OJC   SUNNY     80  70  71 S9        29.99S
LAWRENCE       SUNNY     83  69  62 S12       29.97S

$$

MOZ001>008-011>017-020>025-030>033-038>040-044>046-053-054-241700-
...NORTHERN AND CENTRAL MISSOURI...

CITY           SKY/WX    TMP DP  RH WIND       PRES   REMARKS
ST. JOSEPH     SUNNY     85  68  56 SW10      29.97S
MOSBY          SUNNY     81  64  57 SE6       29.99S
WARRENSBURG    SUNNY     81  68  65 SE9       30.01R
WHITEMAN AFB   SUNNY     83  71  67 S13       30.00S
CLINTON        SUNNY     82  68  61 S8        30.01F
SEDALIA        SUNNY     85  70  60 S10       30.03S
WARSAW         NOT AVBL
CHILLICOTHE      N/A     83  70  64 SE6       30.01S
KIRKSVILLE     SUNNY     84  67  56 S8        30.04S

$$

MOZ041-047>049-056>058-063>065-088>090-097-241700-
...EASTERN AND SOUTHERN MISSOURI...

CITY           SKY/WX    TMP DP  RH WIND       PRES   REMARKS
ST. LOUIS INTL SUNNY     86  68  54 S6        30.06F
SPIRIT OF STL  MOSUNNY   86  70  58 S6        30.04F HX  90
COLUMBIA       SUNNY     83  69  62 S9        30.04F
JEFFERSON CITY SUNNY     83  68  60 VRB3      30.03S
ROLLA          MOSUNNY   85  67  54 S8        30.06F
OSAGE BEACH    SUNNY     83  70  64 SE7       30.04F
SPRINGFIELD    SUNNY     83  68  60 S10       30.03S
BRANSON        MOSUNNY   84  66  54 S6        30.06R
JOPLIN         SUNNY     83  72  69 S12       30.01R
WEST PLAINS    SUNNY     84  66  54 E8        30.07F

$$

IAZ060-094-KSZ022-034>040-054-083-096-NEZ052-066-093-241700-
...KANSAS...SOUTHEAST NEBRASKA AND IOWA...

CITY           SKY/WX    TMP DP  RH WIND       PRES   REMARKS
TOPEKA         SUNNY     83  69  62 S13       29.96R
MANHATTAN      SUNNY     84  66  54 S13G22    29.94R
EMPORIA        MOSUNNY   81  67  62 S14       29.97R
CHANUTE        SUNNY     83  69  62 S12       29.99S
WICHITA        PTSUNNY   83  67  58 S18G26    29.94F
OMAHA          PTSUNNY   81  66  60 S14       29.92S
LINCOLN        MOSUNNY   84  65  52 S18G25    29.91S
FALLS CITY     MOSUNNY   84  67  56 S16       29.94F
LAMONI         SUNNY     82  67  60 S10       30.00S
DES MOINES     MOSUNNY   84  66  54 S9        29.97S

$$





USA.gov is the U.S. government's official web portal to all federal, state and local government web resources and services.